TimeAKDT,TemperatureF,Dew PointF,Humidity,Sea Level PressureIn,VisibilityMPH,Wind Direction,Wind SpeedMPH,Gust SpeedMPH,PrecipitationIn,Events,Conditions,WindDirDegrees,DateUTC
12:16 AM,51.8,39.2,62,29.56,10.0,ESE,3.5,-,N/A,,Unknown,120,2013-07-02 08:16:00
12:36 AM,51.8,39.2,62,29.57,10.0,Calm,Calm,-,N/A,,Unknown,0,2013-07-02 08:36:00
12:56 AM,50.0,39.2,66,29.57,10.0,Calm,Calm,-,N/A,,Unknown,0,2013-07-02 08:56:00
1:16 AM,46.4,39.2,76,29.57,10.0,ESE,4.6,-,N/A,,Unknown,120,2013-07-02 09:16:00
1:36 AM,46.4,39.2,76,29.57,10.0,Calm,Calm,-,N/A,,Unknown,0,2013-07-02 09:36:00
1:56 AM,48.2,41.0,76,29.58,10.0,Calm,Calm,-,N/A,,Unknown,0,2013-07-02 09:56:00
2:16 AM,46.4,39.2,76,29.58,10.0,Calm,Calm,-,N/A,,Unknown,0,2013-07-02 10:16:00
2:36 AM,48.2,39.2,71,29.58,10.0,SE,3.5,-,N/A,,Unknown,140,2013-07-02 10:36:00
2:56 AM,48.2,39.2,71,29.59,10.0,Calm,Calm,-,N/A,,Unknown,0,2013-07-02 10:56:00
3:16 AM,48.2,39.2,71,29.59,10.0,South,4.6,-,N/A,,Unknown,190,2013-07-02 11:16:00
3:36 AM,48.2,41.0,76,29.60,10.0,SSE,4.6,-,N/A,,Unknown,150,2013-07-02 11:36:00
3:56 AM,48.2,42.8,82,29.60,10.0,SE,4.6,-,N/A,,Unknown,140,2013-07-02 11:56:00
4:16 AM,48.2,42.8,82,29.60,10.0,Calm,Calm,-,N/A,,Unknown,0,2013-07-02 12:16:00
4:36 AM,48.2,42.8,82,29.61,10.0,Calm,Calm,-,N/A,,Unknown,0,2013-07-02 12:36:00
4:56 AM,48.2,42.8,82,29.61,10.0,ESE,3.5,-,N/A,,Unknown,120,2013-07-02 12:56:00
5:16 AM,50.0,42.8,76,29.62,10.0,SSW,3.5,-,N/A,,Unknown,210,2013-07-02 13:16:00
5:36 AM,48.2,42.8,82,29.62,10.0,Calm,Calm,-,N/A,,Unknown,0,2013-07-02 13:36:00
5:56 AM,48.2,42.8,82,29.63,10.0,SSW,4.6,-,N/A,,Unknown,210,2013-07-02 13:56:00
6:16 AM,48.2,42.8,82,29.63,10.0,SSW,3.5,-,N/A,,Unknown,200,2013-07-02 14:16:00
6:36 AM,48.2,44.6,87,29.64,10.0,SSW,4.6,-,N/A,,Unknown,200,2013-07-02 14:36:00
6:56 AM,48.2,44.6,87,29.64,10.0,SW,8.1,-,N/A,,Unknown,220,2013-07-02 14:56:00
7:16 AM,48.2,44.6,87,29.65,10.0,SW,6.9,-,N/A,,Unknown,220,2013-07-02 15:16:00
7:36 AM,48.2,44.6,87,29.66,10.0,SW,4.6,-,N/A,,Unknown,230,2013-07-02 15:36:00
7:56 AM,48.2,44.6,87,29.67,10.0,SW,3.5,-,N/A,,Unknown,220,2013-07-02 15:56:00
8:16 AM,48.2,44.6,87,29.68,10.0,SSW,5.8,-,N/A,,Unknown,200,2013-07-02 16:16:00
8:36 AM,50.0,44.6,82,29.68,10.0,SSW,3.5,-,N/A,,Unknown,210,2013-07-02 16:36:00
8:56 AM,50.0,44.6,82,29.69,10.0,West,8.1,-,N/A,,Unknown,260,2013-07-02 16:56:00
9:16 AM,50.0,44.6,82,29.69,10.0,West,6.9,-,N/A,,Unknown,270,2013-07-02 17:16:00
9:36 AM,51.8,44.6,76,29.70,10.0,West,4.6,-,N/A,,Unknown,280,2013-07-02 17:36:00
9:56 AM,51.8,44.6,76,29.70,10.0,West,4.6,-,N/A,,Unknown,280,2013-07-02 17:56:00
10:16 AM,51.8,44.6,76,29.71,10.0,WSW,4.6,-,N/A,,Unknown,250,2013-07-02 18:16:00
10:36 AM,51.8,44.6,76,29.71,10.0,West,6.9,-,N/A,,Unknown,280,2013-07-02 18:36:00
10:56 AM,53.6,42.8,67,29.71,10.0,Calm,Calm,-,N/A,,Unknown,0,2013-07-02 18:56:00
11:16 AM,53.6,44.6,72,29.71,10.0,West,10.4,-,N/A,,Unknown,270,2013-07-02 19:16:00
11:36 AM,53.6,42.8,67,29.73,10.0,West,11.5,-,N/A,,Unknown,270,2013-07-02 19:36:00
11:56 AM,53.6,44.6,72,29.73,10.0,WNW,9.2,-,N/A,,Unknown,290,2013-07-02 19:56:00
12:16 PM,51.8,44.6,76,29.74,10.0,West,11.5,-,N/A,,Unknown,280,2013-07-02 20:16:00
12:36 PM,53.6,44.6,72,29.75,10.0,WSW,9.2,-,N/A,,Unknown,240,2013-07-02 20:36:00
12:56 PM,51.8,46.4,82,29.75,10.0,West,8.1,-,N/A,,Unknown,260,2013-07-02 20:56:00
1:16 PM,53.6,46.4,77,29.75,10.0,WSW,8.1,-,N/A,,Unknown,250,2013-07-02 21:16:00
1:36 PM,53.6,44.6,72,29.76,10.0,West,6.9,-,N/A,,Unknown,260,2013-07-02 21:36:00
1:56 PM,53.6,44.6,72,29.77,10.0,West,9.2,-,N/A,,Unknown,270,2013-07-02 21:56:00
2:16 PM,53.6,44.6,72,29.77,10.0,WSW,11.5,-,N/A,,Unknown,240,2013-07-02 22:16:00
2:36 PM,55.4,44.6,67,29.78,10.0,WSW,9.2,-,N/A,,Unknown,240,2013-07-02 22:36:00
2:56 PM,55.4,44.6,67,29.78,10.0,WSW,5.8,-,N/A,,Unknown,240,2013-07-02 22:56:00
3:16 PM,55.4,44.6,67,29.78,10.0,SW,6.9,-,N/A,,Unknown,230,2013-07-02 23:16:00
3:36 PM,55.4,44.6,67,29.78,10.0,West,5.8,-,N/A,,Unknown,280,2013-07-02 23:36:00
3:56 PM,55.4,44.6,67,29.79,10.0,SW,8.1,-,N/A,,Unknown,230,2013-07-02 23:56:00
4:16 PM,53.6,42.8,67,29.79,10.0,SW,8.1,-,N/A,,Unknown,220,2013-07-03 00:16:00
4:36 PM,53.6,44.6,72,29.79,10.0,SW,6.9,-,N/A,,Unknown,230,2013-07-03 00:36:00
4:56 PM,57.2,46.4,67,29.79,10.0,West,12.7,16.1,N/A,,Unknown,260,2013-07-03 00:56:00
5:16 PM,55.4,44.6,67,29.79,10.0,West,13.8,-,N/A,,Unknown,270,2013-07-03 01:16:00
5:36 PM,55.4,44.6,67,29.80,10.0,WSW,13.8,-,N/A,,Unknown,250,2013-07-03 01:36:00
5:56 PM,55.4,44.6,67,29.80,10.0,SW,11.5,19.6,N/A,,Unknown,230,2013-07-03 01:56:00
6:16 PM,55.4,44.6,67,29.81,10.0,WSW,11.5,19.6,N/A,,Unknown,240,2013-07-03 02:16:00
6:36 PM,53.6,44.6,72,29.81,10.0,WSW,11.5,17.3,N/A,,Unknown,240,2013-07-03 02:36:00
6:56 PM,53.6,42.8,67,29.82,10.0,WSW,12.7,18.4,N/A,,Unknown,240,2013-07-03 02:56:00
7:36 PM,53.6,42.8,67,29.83,10.0,WSW,9.2,17.3,N/A,,Unknown,240,2013-07-03 03:36:00
7:56 PM,51.8,42.8,71,29.83,10.0,WSW,9.2,-,N/A,,Unknown,240,2013-07-03 03:56:00
8:16 PM,51.8,42.8,71,29.84,10.0,WSW,6.9,-,N/A,,Unknown,250,2013-07-03 04:16:00
8:36 PM,51.8,42.8,71,29.84,10.0,SW,6.9,-,N/A,,Unknown,230,2013-07-03 04:36:00
8:56 PM,51.8,42.8,71,29.84,10.0,WSW,6.9,-,N/A,,Unknown,240,2013-07-03 04:56:00
9:16 PM,51.8,42.8,71,29.85,10.0,WSW,5.8,-,N/A,,Unknown,250,2013-07-03 05:16:00
9:36 PM,51.8,42.8,71,29.86,10.0,WSW,5.8,-,N/A,,Unknown,250,2013-07-03 05:36:00
9:56 PM,51.8,42.8,71,29.86,10.0,SW,3.5,-,N/A,,Unknown,220,2013-07-03 05:56:00
10:16 PM,51.8,42.8,71,29.87,10.0,SSW,4.6,-,N/A,,Unknown,200,2013-07-03 06:16:00
10:36 PM,51.8,42.8,71,29.87,10.0,Calm,Calm,-,N/A,,Unknown,0,2013-07-03 06:36:00
10:56 PM,51.8,42.8,71,29.87,10.0,SSW,3.5,-,N/A,,Unknown,210,2013-07-03 06:56:00
11:16 PM,51.8,42.8,71,29.88,10.0,Calm,Calm,-,N/A,,Unknown,0,2013-07-03 07:16:00
11:36 PM,50.0,42.8,76,29.88,10.0,Calm,Calm,-,N/A,,Unknown,0,2013-07-03 07:36:00
11:56 PM,48.2,42.8,82,29.89,10.0,Calm,Calm,-,N/A,,Unknown,0,2013-07-03 07:56:00